Starlink 31613

operational
NORAD ID: 59431 Int'l Des: 2024-065 Owner: SPXS Country: US Constellation: starlink
LEOCIRCULAR

关于 Starlink 31613

正在加载描述...

实时位置

正在加载3D地球...

即将过境

高度历史

Altitude vs Time

uPlot chart will show altitude changes over time

两行轨道根数

1 59431U 24065L 25258.60140380 .00001455 00000-0 61268-4 0 9995
2 59431 53.1628 14.8734 0001322 71.7439 288.3705 15.30192090 82121
Epoch: Sep 15, 2025 • Age: 18 hours

当前状态

高度 493.3 km
速度 7.62 km/s
星下点 -49.84°S, 126.12°E
发射日期 Apr 7, 2024
运行时间 1.4 years
类型 internet

技术详情

分类 Payload
质量 730.00 kg
干质量 700.00 kg
总质量 730.00 kg
长度 0.30 m
直径 4.10 m
跨度 29.00 m
形状 Box + pan
制造商 SPXS
平台类型 Starlink V2M
阶段状态 In Orbit
所有者/国家 SPXS/US

大型星座

Loading constellations...